Powrót do katalogu

HAWK-B

AktywnyNaukaSSO
NORAD 43794·PAYLOAD·🇺🇸 United States

Wystrzelony Dec 3, 2018 z Vandenberg Space Force Base

Loading…

Następne Przeloty (najbliższe 24 godziny)

TLE

ŚwieżeSource: Space-Track

Epoka: Sep 14, 2026, 02:47 UTC

1 43794U 18099AN  26257.11652246  .00004832  00000-0  20144-3 0  9994
2 43794  97.3870 307.4327 0030989 354.0978   5.9890 15.23731361426571

Śledź HAWK-B w czasie rzeczywistym z AllMySat

Download on the App Store